Location: ??????
(55.4348°N, 39.2112°E)
Time: 06:42:47
(UTC+00:00)

Cosmos 1743 Rocket - Pass Details

Date: 14 April 2024
Orbit: 601 x 629 km, 82.6° (Epoch: 22 May)

Event Time Altitude Azimuth Distance (km) Brightness Sun altitude
Rises 00:22:06 0° 346° (NNW) 2,884 7.4 -15.2°
Reaches altitude 10° 00:24:20 10° 344° (NNW) 1,971 6.5 -14.9°
Maximum altitude 00:28:40 69° 262° (W) 651 3.4 -14.5°
Enters shadow 00:32:48 11° 179° (S) 1,889 5.7 -14.1°
